Wind_Speed
37 36 35 34 33 32 32 31 30 29 28 28 27 27 26 26 25 25 25 23 22 22 22 20 19 18 18 17 17 16 16 17 18 19 20 20 20 20 21 21 22 22 22 22 22 24 25 27 28 29 31 32 33 35 37 38 40 42 44 45 45 44 43 41 39 38 37 37 36 35 34 34 33 33 33 33 32 31 30 28 26 25 23 22 21
36 35 34 34 33 32 32 31 30 29 28 28 28 28 27 27 27 26 25 24 23 23 23 22 20 19 19 19 18 18 18 18 19 21 21 22 22 22 22 22 23 23 22 22 23 24 26 27 29 30 32 33 34 36 38 40 43 44 45 46 45 43 40 38 37 36 35 35 34 34 34 34 34 34 34 34 34 32 31 29 26 25 23 22 20
35 35 35 35 33 32 32 31 30 29 29 29 29 29 29 29 29 28 27 26 25 24 23 23 21 21 21 20 20 20 20 20 21 21 22 23 23 23 24 24 23 23 23 23 24 26 27 28 29 31 32 33 35 37 40 42 44 45 45 44 42 40 39 38 37 35 34 33 32 33 33 34 35 35 35 34 34 33 31 28 26 24 23 21 20
35 35 36 35 35 34 34 33 31 30 30 30 31 31 31 31 30 29 28 27 26 25 24 23 23 23 23 22 22 22 22 23 23 23 23 24 24 24 24 24 24 24 23 23 25 27 28 29 30 32 33 34 36 39 42 43 44 44 42 40 38 37 36 36 35 35 34 34 34 34 34 35 36 36 36 35 35 33 30 27 25 24 23 21 19
37 36 35 36 37 37 36 35 33 31 31 31 32 33 33 33 31 30 30 28 27 26 25 25 24 24 24 24 24 24 25 25 25 25 25 25 25 25 24 25 24 24 25 25 26 28 29 30 31 32 33 35 38 41 42 43 42 40 38 36 35 35 34 34 34 34 34 35 36 37 37 37 37 37 38 38 36 34 30 26 23 22 23 22 20
37 36 35 37 39 39 39 37 35 33 33 33 34 34 33 32 31 31 30 29 28 27 27 26 26 26 26 26 26 26 27 27 27 27 27 26 25 25 25 25 25 25 26 27 28 29 30 31 31 32 34 37 40 42 42 41 38 35 33 32 32 33 33 33 33 33 33 34 36 37 38 38 38 38 39 40 39 36 32 27 23 21 21 21 19
38 37 36 37 39 40 40 39 37 36 35 35 35 35 34 33 32 31 30 30 29 29 28 28 28 27 27 28 28 28 29 29 29 29 28 27 26 26 26 25 25 25 27 28 29 30 31 31 32 33 36 38 41 41 40 37 34 32 31 30 30 31 32 33 33 33 33 33 34 35 36 37 38 38 38 40 40 38 34 30 25 21 21 21 19
40 39 38 37 38 40 40 40 39 38 37 37 37 36 35 34 33 32 32 31 31 30 30 30 29 29 29 30 30 30 31 31 30 30 29 28 27 27 26 26 27 27 28 29 30 30 31 32 33 35 38 40 40 39 35 32 31 30 30 30 30 30 31 31 30 30 31 32 33 34 35 36 36 37 37 38 39 39 37 33 28 24 22 22 20
41 40 39 39 39 39 39 40 41 41 40 40 40 38 36 35 34 34 33 32 32 31 31 31 31 30 31 32 32 32 32 31 31 30 29 29 28 28 27 27 28 28 29 30 30 31 32 33 35 37 39 40 38 34 31 29 29 29 29 29 29 29 29 29 28 28 30 31 32 33 34 35 36 36 35 35 36 37 36 33 30 26 24 23 21
43 42 41 41 40 40 39 41 43 43 43 43 41 39 38 36 36 35 34 34 33 33 33 32 32 32 33 33 34 33 32 31 30 30 29 29 29 29 29 29 29 29 30 31 31 32 33 34 37 39 40 38 34 30 27 27 27 27 27 27 27 27 28 27 26 26 28 30 30 31 32 34 35 35 34 34 34 34 33 32 30 26 23 23 22
43 42 41 41 41 42 41 42 44 45 46 45 43 41 40 39 38 37 36 35 35 34 34 33 33 33 34 34 34 33 32 31 30 30 29 29 30 30 30 30 30 30 30 31 32 33 35 37 39 39 38 33 29 26 25 25 25 26 25 25 25 26 27 27 26 26 28 30 30 30 31 32 34 34 33 32 33 32 31 30 29 26 22 22 22
40 40 39 41 42 43 44 44 44 46 47 47 45 43 42 41 40 39 38 37 35 35 35 34 34 34 34 34 33 32 31 31 31 30 30 30 31 31 32 32 31 31 31 32 33 34 36 39 40 38 34 28 25 23 23 23 24 24 24 25 25 25 26 26 27 28 30 32 33 32 31 31 33 33 32 32 33 33 31 29 27 26 24 22 23
37 36 38 40 42 43 45 45 46 47 47 48 47 46 45 44 42 41 39 37 37 37 36 35 34 34 34 33 32 31 31 31 31 31 31 31 32 33 33 32 32 32 32 33 35 36 38 40 39 35 29 25 23 22 22 23 23 23 24 25 26 25 25 26 28 31 32 34 36 37 35 32 32 32 31 31 33 33 33 31 28 25 23 24 24
35 34 36 37 39 41 43 45 46 47 47 48 48 48 48 46 44 42 40 39 38 38 36 35 35 34 34 33 32 32 32 32 32 32 32 33 33 34 33 32 32 33 34 35 37 39 40 39 35 30 25 22 21 21 22 24 24 24 25 27 28 28 26 26 29 31 32 34 37 39 39 36 34 34 34 33 34 34 32 31 30 26 22 23 25
34 33 34 34 36 38 40 42 44 45 47 47 48 49 49 47 45 42 41 40 40 38 37 36 36 35 33 33 34 34 33 32 33 33 33 34 34 33 33 33 33 34 35 37 39 40 40 37 31 26 23 21 21 22 23 24 25 26 28 30 32 32 29 29 32 32 33 35 38 39 41 40 38 39 39 37 37 38 34 32 32 26 20 21 25
33 32 32 33 34 35 37 38 40 42 44 46 47 48 48 46 44 42 41 41 40 39 39 37 36 34 34 35 35 35 33 33 33 34 35 35 34 33 33 34 34 36 37 39 41 41 38 32 27 24 21 20 21 22 23 25 26 28 30 33 35 35 34 34 35 35 36 39 42 43 44 44 42 42 43 41 40 40 37 35 34 27 20 20 22
34 33 32 32 32 33 34 35 36 38 41 43 45 46 46 45 43 41 40 39 39 39 39 37 36 35 36 37 36 35 34 34 34 35 35 35 34 34 35 35 36 37 39 41 41 39 34 29 25 23 22 21 22 23 24 26 27 28 30 33 36 37 37 37 39 40 41 44 48 49 48 47 46 46 46 45 42 39 36 34 34 29 22 18 18
36 34 33 32 31 31 31 31 33 35 37 40 42 43 44 43 42 41 40 39 38 39 38 37 37 37 37 37 36 35 34 34 35 35 35 35 35 35 36 37 37 39 41 42 40 35 30 26 24 23 23 23 24 24 25 26 27 28 30 33 37 39 38 39 40 42 44 49 54 54 52 50 50 48 46 43 41 40 37 34 34 34 27 22 24
38 36 34 33 31 30 29 29 30 32 35 37 39 40 42 42 42 41 41 40 39 39 39 39 39 39 38 37 36 35 35 35 35 35 35 36 37 37 38 38 39 41 42 40 37 32 28 25 23 24 25 26 26 26 26 26 28 30 31 32 36 39 40 40 40 40 46 54 58 57 56 55 54 52 48 44 44 44 42 38 36 36 33 31 36
40 37 35 33 31 29 29 29 29 31 33 35 36 37 39 40 41 42 42 41 41 40 41 41 40 40 38 37 35 35 35 35 36 36 36 37 38 38 39 40 41 42 41 38 34 29 26 24 24 25 27 28 28 29 29 29 30 32 33 33 36 39 41 42 40 39 45 56 59 57 57 57 57 56 54 53 53 52 50 47 43 39 36 36 40
41 38 35 33 31 30 31 31 31 32 33 33 34 35 36 38 39 41 41 41 41 41 41 41 40 39 38 36 35 35 36 36 36 36 37 38 39 40 41 42 42 42 39 35 31 27 25 25 26 27 28 30 30 30 30 31 31 33 34 35 37 39 41 43 41 38 40 49 55 55 56 57 57 56 56 56 57 58 58 57 56 51 45 40 39
42 39 37 35 33 33 33 33 34 34 34 34 34 34 35 36 37 39 40 40 40 40 40 39 38 37 36 36 36 36 36 36 37 37 38 38 40 41 43 43 42 39 35 31 27 25 25 26 27 28 30 31 32 32 32 33 33 35 36 37 39 41 42 43 44 41 39 43 48 52 56 58 57 56 56 56 56 58 58 58 59 58 56 53 48
44 42 41 39 38 37 36 35 35 35 35 35 35 35 35 35 36 37 38 38 38 38 38 37 37 37 36 36 36 36 36 37 38 39 39 40 41 42 43 42 39 35 32 29 27 26 27 28 29 30 31 32 33 34 34 35 36 37 39 40 42 43 44 45 46 46 45 45 47 50 55 57 56 55 56 57 58 58 58 57 56 56 57 58 58
47 46 45 44 43 41 40 39 37 36 36 36 36 36 36 36 36 37 37 38 38 37 37 37 37 37 36 36 37 37 38 39 40 40 41 42 42 43 42 40 37 34 31 29 28 28 29 30 31 32 33 34 35 36 36 38 38 39 41 42 44 45 46 47 48 49 50 50 49 50 52 52 51 52 55 58 59 61 61 59 58 58 57 56 56
50 50 49 48 47 46 44 43 41 39 38 38 38 37 37 36 36 37 38 38 38 37 37 37 37 37 37 37 38 39 40 41 42 42 43 43 43 43 41 38 35 32 30 29 29 30 31 32 33 34 34 35 36 38 39 39 40 41 43 44 46 47 48 49 49 50 52 52 52 52 50 47 48 53 56 58 59 61 62 61 60 59 59 57 55
52 52 51 50 48 47 46 46 44 42 40 40 40 39 39 38 38 39 39 39 39 38 38 38 38 38 39 39 40 41 42 43 44 45 45 44 43 41 39 36 33 31 30 30 31 32 33 34 35 35 36 37 38 39 40 41 42 43 45 46 48 49 50 50 51 52 53 54 54 54 51 48 50 55 58 58 60 63 62 60 59 59 59 57 54
53 53 52 51 50 49 48 48 46 45 44 43 42 42 42 41 41 42 41 41 41 40 40 40 40 40 41 41 43 44 45 45 46 46 45 43 41 38 35 33 32 31 32 33 34 35 35 36 36 37 38 39 40 41 42 43 44 45 47 48 50 51 51 52 52 53 55 55 56 55 53 50 52 56 58 59 62 64 63 60 59 59 59 56 51
53 54 54 53 52 51 50 49 48 47 47 46 46 45 45 44 44 44 44 43 43 43 43 43 43 43 44 45 46 46 47 47 46 45 44 41 38 35 34 33 33 34 35 35 35 36 37 37 38 39 39 40 41 42 43 44 46 47 49 51 52 53 53 54 55 56 57 57 57 56 54 51 53 56 58 60 63 64 62 61 59 56 56 56 49
51 53 54 53 53 53 52 51 50 50 50 50 49 49 48 47 47 47 46 46 46 46 46 46 46 46 47 47 48 48 47 47 45 44 41 39 36 35 35 35 36 36 36 36 36 37 38 39 40 40 41 41 42 43 44 46 48 49 51 52 53 54 55 56 57 58 59 60 59 59 57 53 52 55 59 61 63 62 61 61 59 55 53 53 50
47 49 50 52 52 52 52 52 52 52 52 52 52 52 51 51 50 49 49 48 48 48 48 48 48 48 48 48 48 47 46 44 43 41 39 37 36 36 37 37 37 37 37 37 38 39 40 41 42 42 43 43 44 45 47 48 50 52 53 54 54 56 57 58 59 60 61 62 62 62 59 54 50 53 58 61 61 59 59 60 59 55 51 50 48
42 44 46 47 49 50 51 52 52 52 53 53 52 52 52 52 52 52 51 51 50 50 50 49 48 48 47 47 46 44 43 42 40 39 37 37 37 38 38 38 38 38 38 39 41 42 42 43 43 44 44 45 46 48 49 50 52 53 55 55 56 57 58 60 61 61 62 63 63 64 61 55 49 51 57 60 59 56 56 57 57 53 49 46 44
37 39 41 43 44 46 48 49 50 51 51 51 51 51 51 51 51 51 51 51 50 50 49 48 47 46 45 44 43 42 41 40 39 39 38 39 39 39 39 39 39 40 41 42 43 44 44 45 45 46 47 48 49 50 51 52 54 55 56 56 58 59 60 62 62 63 63 64 64 65 62 54 48 50 55 58 57 54 53 54 54 51 46 42 38
36 36 37 38 39 41 43 44 45 46 47 48 48 48 49 49 49 49 48 48 47 47 46 45 44 43 42 41 41 40 40 39 40 40 40 41 41 41 41 41 42 43 44 45 45 46 46 47 48 49 49 50 51 52 53 54 55 57 57 58 59 60 61 63 63 63 64 64 64 64 60 51 45 48 53 56 56 54 52 51 51 49 44 39 36
37 36 36 36 36 37 38 39 40 41 43 43 44 45 45 45 45 45 45 44 44 43 43 42 42 41 41 41 41 41 41 41 42 43 43 43 43 43 43 44 45 46 46 47 48 48 48 49 50 51 52 53 54 55 55 56 58 59 59 59 60 61 62 63 64 63 63 63 64 63 58 48 44 47 50 51 54 54 51 48 47 46 44 39 34
38 38 38 37 37 36 37 37 37 38 39 40 41 41 41 41 42 42 42 42 42 41 41 41 41 40 41 41 42 42 43 43 44 44 44 44 45 46 46 47 48 48 49 50 50 50 51 52 53 54 55 56 57 57 58 59 60 61 61 62 62 63 63 64 65 64 63 63 63 61 55 48 45 47 48 47 51 54 53 50 47 45 42 37 33
41 40 39 39 38 38 38 38 38 38 39 39 39 39 39 40 40 40 41 41 41 41 41 41 41 41 42 43 44 45 45 46 46 46 46 47 48 48 49 49 50 51 52 52 52 53 54 55 56 57 58 59 60 60 61 62 63 63 64 64 64 65 65 65 64 64 64 63 61 58 53 49 48 50 51 50 50 52 53 51 49 47 43 36 32
44 43 42 41 41 40 40 40 40 40 41 40 40 40 41 41 41 41 42 43 43 42 42 42 43 44 45 46 46 46 47 47 47 48 49 49 50 50 51 52 53 53 54 54 55 56 57 58 59 60 61 62 63 64 64 65 65 66 66 66 66 66 66 65 64 64 65 63 60 57 54 53 53 54 55 54 50 49 52 52 49 47 45 40 35
47 46 45 45 44 43 43 43 43 43 43 43 43 43 43 43 43 44 45 44 44 44 44 45 46 48 49 49 48 48 49 50 50 51 51 51 52 53 54 55 56 56 56 57 58 59 60 62 62 63 64 64 65 66 67 68 68 68 69 69 68 67 66 65 64 65 65 62 60 59 57 56 56 56 57 56 51 46 49 52 49 45 44 42 40
50 48 48 47 47 47 46 46 46 46 46 46 46 46 45 45 46 46 46 46 48 49 48 48 50 51 51 50 49 49 50 51 51 52 52 53 54 56 57 57 58 58 59 60 62 63 64 65 66 66 67 67 68 69 70 70 71 71 72 71 69 68 66 65 66 67 65 63 62 62 59 58 58 57 59 62 58 49 45 49 51 49 45 42 41
53 51 51 50 50 50 49 49 50 50 50 50 50 50 49 48 48 48 48 50 53 54 53 52 52 52 52 51 50 49 50 51 52 53 55 56 58 59 59 60 61 61 63 64 66 67 68 68 69 69 69 70 70 71 72 73 74 74 73 71 69 68 68 68 68 68 66 65 64 62 59 58 58 59 62 66 66 57 46 43 49 53 50 45 42
55 55 54 53 53 52 53 53 54 54 54 54 55 55 54 52 51 51 52 54 56 57 57 55 54 53 53 54 54 53 54 55 57 58 59 60 60 61 62 63 64 65 67 68 69 70 71 71 72 72 72 72 73 74 75 76 76 75 72 71 70 70 69 70 70 69 68 67 65 61 59 59 60 62 65 68 68 63 52 42 43 50 53 50 46
58 58 57 56 56 55 55 56 56 56 55 56 57 57 56 56 55 55 55 55 56 57 57 57 56 56 56 57 57 58 59 60 61 61 62 62 63 64 66 67 68 70 71 72 73 73 74 74 74 74 74 74 76 77 78 77 76 75 73 73 73 72 72 72 72 71 70 69 65 62 60 62 64 67 68 67 66 64 57 47 42 45 50 51 49
61 61 60 60 59 58 58 58 58 58 58 58 58 58 58 59 59 58 58 57 57 57 57 57 58 59 60 60 61 62 63 64 64 64 65 66 67 68 70 71 72 73 74 75 76 76 77 77 77 77 77 78 79 79 80 79 78 77 77 76 75 74 74 74 73 72 71 70 66 64 64 66 68 70 70 67 65 64 61 54 47 44 46 49 50
65 64 64 63 63 62 61 61 61 61 61 61 61 61 61 61 61 61 60 60 60 59 60 60 60 61 62 64 65 65 66 66 67 68 69 70 72 73 74 75 76 77 77 78 79 79 79 79 80 80 80 81 81 81 81 81 81 80 80 78 77 76 76 75 74 73 72 69 67 67 68 69 71 72 70 68 66 64 62 59 56 51 46 45 47
68 68 67 66 66 66 65 65 64 64 64 63 63 63 63 64 64 64 64 63 63 63 63 64 64 65 66 67 68 69 69 70 71 72 74 74 75 76 77 78 78 79 80 81 81 82 82 82 82 82 82 83 83 83 83 83 82 82 81 80 78 78 76 75 75 75 72 70 69 70 70 72 74 74 72 69 68 66 63 61 60 58 53 47 45
72 71 70 70 69 69 69 68 68 67 66 66 66 66 65 65 65 66 67 67 67 67 67 68 68 69 70 71 72 73 74 75 76 77 77 78 79 79 80 81 81 82 83 83 84 84 84 84 84 84 85 85 85 85 84 84 83 83 83 82 81 79 78 77 78 77 74 72 72 73 73 75 77 76 74 72 70 68 66 64 62 61 59 56 51
74 74 73 73 73 72 72 71 70 70 69 68 68 67 66 65 66 67 68 68 68 69 70 70 71 72 73 74 76 77 77 78 79 80 80 80 81 82 82 83 84 85 85 86 86 86 87 87 87 87 88 87 87 86 86 86 86 86 86 85 83 81 80 81 81 79 76 75 75 75 77 79 81 80 78 76 73 71 70 69 67 65 63 62 60
76 76 76 76 75 75 74 74 73 73 72 72 71 71 71 70 71 72 72 72 71 71 72 73 73 75 76 77 78 79 80 80 81 82 83 83 84 84 85 86 87 87 88 88 89 90 90 90 90 90 89 89 88 88 88 88 88 88 88 86 84 83 84 84 82 79 77 77 77 78 81 83 85 84 82 80 78 75 74 73 72 71 69 67 65
79 78 78 78 78 78 77 76 76 75 75 75 74 74 74 74 75 75 75 75 75 75 75 75 76 77 78 79 80 81 82 83 84 85 85 86 87 87 88 88 89 90 90 91 92 93 93 92 92 91 91 91 91 90 90 89 89 89 88 87 86 86 87 85 82 80 79 79 80 81 84 87 88 89 87 85 83 82 80 78 77 76 75 73 69
81 81 81 80 80 80 79 79 78 78 78 78 78 77 77 77 76 76 76 76 77 77 78 78 79 80 81 82 83 84 84 85 85 87 88 88 89 90 90 90 91 92 93 93 94 94 93 93 93 93 93 93 93 92 90 89 89 89 89 89 89 89 89 86 84 83 82 82 83 85 88 91 93 93 92 89 88 86 85 84 83 82 81 78 74
83 83 83 83 83 82 81 81 81 81 80 80 80 79 79 78 77 77 77 77 78 79 80 81 82 82 83 84 84 85 86 87 87 88 89 89 90 90 91 91 92 92 93 93 94 94 94 94 95 95 95 94 92 91 90 90 90 92 93 93 92 91 90 89 87 86 85 86 87 89 92 95 97 96 94 91 90 89 88 88 88 88 86 82 77
Wind_Direction
221 220 218 217 216 215 214 213 211 211 214 218 221 224 226 228 232 236 239 242 244 247 250 251 252 253 256 261 264 268 274 281 286 291 295 299 303 306 309 312 316 318 321 323 325 328 332 334 334 334 333 333 333 334 334 335 336 336 335 335 335 335 336 337 338 339 339 340 339 339 338 337 336 335 333 332 330 328 323 319 313 305 296 288 281
222 222 222 221 221 221 221 220 216 213 214 217 220 224 227 230 233 236 239 242 244 247 249 251 252 253 256 260 264 268 272 277 283 288 294 298 302 305 308 310 313 316 318 320 323 326 329 330 330 330 331 332 332 333 334 335 335 334 334 334 335 336 337 338 339 339 340 340 339 337 336 337 337 336 336 334 333 331 326 322 316 309 302 294 287
222 223 223 223 224 225 226 226 222 216 215 216 219 223 227 229 232 235 238 240 243 245 248 250 252 254 257 261 265 269 272 277 281 287 292 298 302 305 308 310 313 315 317 319 322 324 325 326 326 328 329 330 331 333 333 334 333 332 332 334 336 337 338 339 340 342 342 342 341 338 338 339 339 338 338 338 336 334 330 326 322 315 307 300 293
221 222 223 223 224 225 227 228 226 221 218 218 220 222 226 229 231 234 237 239 241 243 245 248 251 255 260 264 268 272 277 280 284 288 292 297 301 304 307 310 313 315 316 318 320 321 321 323 325 327 328 329 331 332 332 332 331 331 333 335 337 338 339 340 343 345 345 344 343 342 341 341 341 340 340 341 340 338 334 331 329 322 314 307 300
220 220 221 223 224 226 227 228 228 225 222 221 222 223 226 229 231 234 236 239 240 241 243 246 251 256 261 266 270 275 279 283 287 290 293 296 299 303 306 309 312 314 315 317 317 317 318 321 323 325 327 329 330 330 330 330 330 332 334 336 338 339 340 342 345 345 346 345 343 344 344 343 343 343 344 344 343 342 339 337 337 330 320 313 307
219 219 219 221 224 226 227 228 229 227 225 224 224 226 228 230 232 234 237 239 240 241 243 247 251 256 261 266 272 276 281 285 288 290 293 295 298 302 305 309 312 313 314 313 314 314 317 319 322 324 327 329 329 328 328 328 330 332 335 337 339 340 341 342 344 345 344 344 343 343 343 344 344 346 346 346 345 345 343 341 342 337 325 317 311
220 219 218 220 223 226 228 229 230 229 228 227 227 228 229 230 232 234 236 237 239 241 244 248 253 257 262 267 272 277 281 285 289 291 293 296 298 302 306 309 310 310 309 310 311 313 316 318 321 323 326 327 327 327 327 328 331 334 336 338 339 340 341 342 343 343 341 342 342 341 343 343 344 346 347 347 346 346 345 343 344 341 330 320 314
222 221 219 220 222 226 229 230 231 230 229 229 229 229 230 230 232 233 235 236 239 242 246 250 254 258 263 267 272 276 281 285 289 292 295 297 301 305 307 308 307 306 306 307 309 312 315 318 321 323 325 326 325 326 327 329 332 335 338 339 339 340 342 343 344 343 341 342 342 342 342 342 343 345 347 347 345 346 346 343 342 343 336 327 324
224 224 223 222 222 225 229 231 232 232 231 231 231 232 232 232 233 234 236 238 240 244 247 251 256 260 265 269 273 277 282 286 289 292 295 299 303 306 306 305 304 304 305 306 309 311 314 317 320 323 324 325 325 325 327 330 334 337 338 338 338 340 342 344 345 344 340 342 344 343 342 342 342 343 346 346 344 345 345 342 339 341 340 336 337
227 227 228 226 224 224 226 230 232 232 233 233 234 234 234 235 236 237 239 241 243 246 249 253 258 262 267 271 276 280 284 287 290 293 297 301 303 304 303 302 302 303 304 306 309 311 314 317 320 321 323 323 324 325 329 333 335 336 336 335 336 339 340 343 345 343 339 340 343 343 341 340 340 341 343 343 340 341 343 340 336 336 338 337 338
230 231 232 231 227 225 225 228 231 232 233 234 235 235 236 237 238 239 241 243 245 248 252 256 260 264 270 275 279 282 285 287 290 294 298 300 301 300 299 300 301 302 304 306 308 312 315 317 319 320 321 321 322 325 330 333 333 332 331 331 334 337 339 341 344 343 338 338 340 341 340 339 338 338 339 338 335 336 338 337 333 328 329 332 332
233 234 234 234 231 228 226 226 229 231 233 234 235 236 237 238 239 240 242 244 247 250 254 258 262 267 272 277 279 281 283 286 289 293 296 297 297 296 297 299 300 302 304 306 309 312 314 316 318 319 319 319 322 326 330 329 328 328 327 329 333 337 339 340 342 341 337 336 338 338 337 337 334 334 338 337 332 331 333 334 331 323 319 323 326
234 234 235 235 234 233 231 228 228 230 232 234 235 236 237 238 239 241 243 245 248 251 255 259 264 269 273 276 278 279 282 285 288 291 292 293 293 294 296 298 300 301 304 306 309 311 314 316 317 316 316 318 322 326 326 324 323 325 326 329 333 336 338 339 339 338 334 334 336 334 332 333 331 331 336 337 332 330 330 328 325 320 315 313 316
233 234 235 235 236 236 236 234 232 231 231 232 234 236 237 238 239 241 244 246 249 253 257 261 265 269 272 275 277 279 281 283 287 288 289 290 291 293 296 297 299 301 304 307 309 311 313 314 314 312 314 318 322 323 322 321 321 324 328 330 332 336 339 340 338 334 331 333 334 331 328 329 328 327 328 328 324 323 324 323 318 315 314 309 306
232 234 235 236 237 237 238 238 237 236 234 233 234 236 237 239 240 242 245 248 251 255 258 261 264 267 271 274 275 277 280 282 285 286 287 289 291 293 294 296 298 301 304 307 309 311 312 311 309 309 313 318 320 319 318 318 321 326 330 331 333 337 341 342 339 333 331 333 332 329 327 327 328 327 324 320 316 313 316 316 310 310 317 310 301
230 232 234 236 237 238 239 239 240 239 238 236 235 236 237 239 240 242 245 248 251 254 256 259 261 265 268 270 272 275 279 281 283 284 286 288 290 291 293 295 298 301 304 306 308 309 309 307 305 307 311 315 315 315 315 317 322 328 331 332 333 336 341 343 340 334 333 334 331 329 327 326 327 327 322 318 316 313 313 311 304 305 315 312 307
229 230 233 236 238 239 239 240 241 241 240 239 238 238 238 239 241 242 244 246 249 252 255 256 259 261 263 267 271 275 278 279 280 282 285 287 288 289 291 294 298 301 304 305 306 306 304 302 303 306 310 312 312 312 314 318 322 328 332 332 333 335 340 342 340 336 336 335 330 329 328 326 326 326 322 319 318 315 312 306 297 298 304 298 300
229 230 232 234 236 238 239 240 241 242 242 242 241 240 240 240 241 242 243 245 248 250 253 255 257 259 262 266 271 274 275 276 279 282 283 284 286 288 291 295 298 301 302 302 303 302 299 298 302 306 308 308 309 310 312 317 321 326 331 332 332 332 337 340 339 337 337 334 330 328 327 325 325 324 322 321 320 317 314 306 294 292 292 276 274
229 230 231 232 234 236 238 240 241 242 243 243 243 242 241 240 240 241 243 244 246 249 252 254 257 260 263 267 269 271 273 276 278 280 281 282 285 288 291 295 298 299 300 300 299 296 294 296 301 304 306 307 308 310 313 318 322 325 329 331 330 330 334 338 338 338 336 332 328 326 325 323 322 321 319 317 316 315 315 311 300 292 285 271 270
228 230 230 231 233 235 237 239 239 240 241 242 242 242 241 241 241 241 243 244 246 249 252 256 259 262 264 266 267 270 272 275 277 277 279 282 285 289 292 295 297 297 297 296 294 292 294 299 304 306 307 308 309 311 315 319 322 323 325 327 328 329 332 334 337 338 335 329 324 324 324 323 321 319 317 315 315 313 312 311 307 299 286 272 267
228 230 230 230 232 234 235 236 236 236 237 239 240 240 240 240 241 243 244 246 248 250 253 256 258 261 263 265 267 270 272 273 274 276 278 282 286 289 291 294 295 294 293 292 292 295 299 303 304 304 305 305 307 310 313 317 318 319 321 323 326 327 329 331 333 335 332 325 322 323 323 322 319 317 315 314 313 313 312 310 309 305 298 286 271
228 229 228 228 230 231 232 232 232 233 234 235 237 238 239 240 242 243 245 247 248 250 252 255 257 259 262 265 267 269 270 272 273 275 279 282 285 288 290 292 292 291 290 290 291 294 297 297 297 298 299 301 304 307 311 313 314 316 318 321 323 325 327 328 329 329 327 323 322 323 321 319 317 314 311 310 308 307 307 306 305 304 302 299 289
228 228 227 227 228 228 228 228 230 232 233 234 236 237 238 239 241 243 245 247 248 250 251 254 257 259 261 264 266 268 269 271 273 276 279 282 284 286 288 289 288 285 283 283 285 287 290 291 292 294 296 300 304 308 310 312 313 315 317 320 322 324 325 326 326 326 326 324 322 321 319 317 315 312 309 308 306 304 303 302 301 300 300 299 296
227 227 227 227 227 227 227 228 231 233 234 236 237 238 239 240 241 243 245 247 248 250 252 254 257 259 261 263 265 267 269 270 273 276 278 281 282 284 285 284 281 278 276 278 282 285 288 290 291 294 297 301 305 308 309 311 312 314 315 317 320 322 323 325 325 324 324 323 322 321 319 316 314 312 310 307 306 306 305 304 304 303 301 297 292
228 228 228 228 229 229 230 231 233 235 236 238 239 240 241 242 243 245 246 248 250 251 253 255 257 259 261 263 265 267 268 270 273 275 277 279 280 281 280 278 276 274 274 277 281 284 287 289 291 295 298 302 304 306 307 309 310 312 314 316 318 320 321 322 322 322 321 322 322 322 321 318 316 313 310 307 307 306 306 308 309 308 304 299 293
229 230 231 231 232 233 233 234 236 237 237 239 241 242 243 244 245 247 248 250 251 253 254 256 258 259 261 262 264 266 268 271 273 275 276 278 278 277 276 273 271 271 272 275 279 282 286 289 293 296 299 301 303 304 305 307 308 310 312 314 316 318 320 320 320 319 319 320 322 323 322 319 316 314 310 308 308 308 309 312 312 310 306 302 297
229 230 232 233 233 234 235 236 237 237 238 239 241 243 244 244 245 247 249 250 252 254 255 256 257 259 260 262 264 266 269 271 272 274 275 275 274 272 271 269 268 269 271 274 278 282 286 290 294 297 298 300 302 303 304 305 307 309 311 313 315 317 318 318 317 317 318 320 321 323 322 318 316 314 311 309 309 310 312 314 313 310 308 305 301
229 230 231 232 233 233 234 235 236 237 238 239 240 242 243 245 246 247 249 250 252 253 255 256 257 259 261 262 264 267 269 270 271 272 272 270 269 267 266 266 266 267 270 274 278 283 287 291 293 296 297 299 300 301 303 304 306 309 311 313 314 315 316 316 316 316 318 319 320 322 322 319 317 314 311 309 309 310 313 314 314 313 311 309 307
230 230 231 232 232 233 234 235 236 237 238 239 240 241 243 244 246 248 249 251 252 253 255 256 258 259 261 263 265 267 268 268 268 267 266 265 264 263 263 263 265 267 271 275 280 284 287 290 292 294 296 298 299 301 302 304 306 308 310 311 313 314 314 315 316 316 318 319 320 320 321 320 318 314 310 308 309 311 313 315 315 315 312 310 309
230 231 231 232 233 234 234 235 236 237 238 239 240 242 243 245 246 248 250 251 252 254 255 257 258 260 262 264 265 265 265 265 263 262 261 261 261 261 262 263 266 269 274 278 281 284 287 289 291 293 295 297 299 300 302 304 306 308 309 311 312 313 313 314 315 317 318 318 319 319 319 319 317 313 309 307 309 312 314 314 315 315 312 308 307
230 230 231 231 232 233 234 235 236 237 238 239 241 242 243 245 246 248 249 251 252 254 255 257 258 259 260 261 261 261 260 259 258 258 259 260 261 262 264 267 270 273 277 279 281 284 287 288 290 292 294 296 298 300 302 304 306 307 308 310 311 312 313 314 315 316 317 317 317 317 317 317 315 312 308 306 308 311 312 313 315 316 313 309 307
231 231 230 230 231 232 233 234 235 237 238 239 240 241 243 244 246 247 248 249 251 252 254 255 256 256 257 257 256 256 255 255 256 257 258 259 261 263 266 269 272 275 277 279 282 285 287 288 290 292 293 295 297 299 302 304 305 306 307 309 310 311 312 313 315 315 316 316 315 315 315 315 315 314 311 307 306 308 309 311 313 314 312 310 309
230 231 231 231 231 231 232 234 235 236 238 239 239 240 241 243 244 245 246 248 249 250 251 252 253 253 252 252 251 252 252 253 255 256 257 260 262 265 268 270 273 275 277 280 282 284 286 288 289 291 293 295 296 299 301 302 303 304 306 308 309 310 311 312 313 314 314 314 314 314 313 312 315 317 313 306 304 306 307 310 313 313 310 309 311
232 232 231 231 231 232 232 233 234 236 237 238 238 239 240 241 242 243 245 246 247 248 249 250 250 250 250 250 250 251 252 253 254 256 258 261 264 266 269 271 273 276 278 281 283 285 286 288 289 291 293 295 296 298 300 301 302 303 305 307 308 309 310 311 312 313 313 313 313 313 312 311 314 318 315 306 302 304 306 308 311 313 310 307 307
236 235 234 233 233 233 234 234 235 236 237 238 239 239 239 240 241 242 243 245 246 247 248 249 249 250 250 251 251 252 252 253 254 256 259 263 265 267 269 272 275 278 280 282 283 285 287 288 290 292 293 295 296 298 299 300 301 303 305 306 308 308 310 310 310 312 313 313 314 313 311 308 311 319 320 312 302 301 305 307 308 310 309 303 301
241 241 240 239 237 237 237 237 237 238 239 240 241 242 242 242 242 243 244 245 246 247 248 250 251 253 253 253 253 253 254 255 256 258 261 263 266 268 271 274 277 279 280 282 284 285 287 289 290 292 293 294 296 297 298 300 301 303 304 306 307 308 309 309 310 311 313 313 314 313 310 307 309 316 322 321 309 301 303 307 309 309 307 300 293
244 244 244 244 243 242 241 241 240 241 241 242 244 244 244 245 245 245 245 246 247 248 249 251 252 253 254 254 254 255 256 257 258 260 262 265 268 271 274 276 277 278 280 282 284 286 287 289 290 291 293 294 296 297 298 300 301 303 304 306 306 307 308 308 309 312 312 312 313 311 309 308 309 311 318 322 316 303 300 304 306 306 306 301 293
243 244 245 245 245 245 245 245 245 245 244 245 245 246 246 246 246 246 247 248 249 250 250 251 252 252 252 253 254 256 258 259 260 262 264 268 270 273 274 275 277 279 281 283 285 286 287 288 289 291 292 294 296 298 299 300 301 303 304 305 306 306 306 307 309 312 312 311 311 311 309 308 309 310 314 321 319 307 298 298 299 299 299 298 294
240 242 243 244 245 245 246 247 247 248 248 248 248 248 248 247 247 247 247 248 250 250 250 250 251 251 252 253 255 257 259 262 264 265 267 269 271 272 273 275 278 280 282 284 285 286 287 288 290 291 293 295 296 298 299 300 301 302 303 304 305 306 306 307 310 312 311 310 310 311 310 309 309 309 312 317 320 314 301 291 289 290 291 290 287
238 240 241 242 243 244 245 247 248 249 249 249 250 250 249 249 249 248 248 247 249 250 251 251 252 254 256 257 259 260 262 265 267 268 268 270 271 273 275 278 280 282 283 284 285 286 287 289 290 292 293 295 297 297 298 300 301 302 302 304 304 305 306 308 309 310 310 309 309 310 310 310 309 308 310 313 317 318 311 294 285 285 286 284 279
239 240 241 242 243 243 244 246 247 248 248 249 250 251 251 251 252 251 250 249 250 252 253 254 256 258 260 262 264 265 265 267 268 269 270 272 274 276 278 280 281 282 283 284 285 286 288 289 291 292 294 295 296 297 298 299 301 301 302 303 304 305 306 308 309 309 308 308 308 308 310 311 310 310 311 312 314 316 315 305 292 287 287 285 280
240 241 242 242 243 244 245 246 247 247 248 249 250 251 252 253 254 253 253 252 253 254 256 257 259 261 263 264 265 266 267 267 269 271 273 274 276 277 279 280 281 282 283 284 285 287 288 290 291 292 294 295 295 296 297 299 300 301 302 303 303 304 305 307 308 307 307 307 307 307 308 311 312 312 312 312 312 313 314 310 300 291 288 288 285
240 241 242 243 244 244 245 246 247 248 248 249 251 252 253 254 255 256 255 255 255 256 257 259 260 261 262 263 264 265 267 269 271 272 274 275 276 277 278 279 281 282 283 284 286 287 288 290 291 292 293 294 295 296 297 298 299 300 301 302 303 303 305 306 307 307 306 306 306 306 307 310 312 312 312 312 312 312 313 311 306 296 288 284 284
240 241 243 244 244 245 246 246 247 248 248 249 250 252 253 254 256 257 258 258 258 259 259 261 262 262 263 264 265 267 268 270 271 272 274 275 276 277 278 280 281 282 283 285 286 287 289 290 291 292 293 293 294 295 296 297 298 299 300 302 302 303 304 305 306 306 306 305 306 307 308 309 311 312 312 312 312 311 312 311 309 305 297 287 282
239 240 242 243 245 245 246 247 248 248 248 249 250 251 253 254 256 257 259 259 260 261 261 262 263 264 265 266 267 268 269 270 271 272 274 275 276 277 279 280 281 283 284 285 287 288 289 290 291 292 292 293 294 295 296 296 297 298 300 301 302 302 303 304 306 306 305 304 305 307 308 310 311 312 312 312 312 311 311 310 310 309 305 297 286
239 240 241 242 244 245 246 247 248 249 250 250 251 252 254 256 258 259 259 259 260 260 261 263 264 265 266 267 268 269 270 271 272 273 274 275 277 278 279 281 282 284 285 286 287 288 289 290 291 291 292 293 293 294 295 296 297 298 299 301 301 301 302 303 305 305 304 304 305 307 308 311 312 313 312 312 311 311 310 310 309 309 307 303 295
240 241 241 242 243 244 245 247 248 249 250 251 251 252 253 254 256 257 258 259 259 259 260 262 263 265 266 267 268 269 270 271 273 274 275 276 278 279 280 282 283 284 285 286 287 288 289 289 290 291 291 292 292 293 295 296 297 298 299 300 300 301 301 303 305 305 304 304 306 306 308 310 312 313 312 312 311 311 310 310 310 309 309 306 301
241 242 242 243 243 244 245 246 247 248 249 250 251 252 252 253 254 255 258 259 260 261 261 262 264 265 266 267 268 270 271 272 274 275 276 277 279 280 281 282 283 284 285 286 287 288 288 289 289 290 291 291 292 293 294 295 296 297 298 299 300 300 302 304 305 304 304 305 305 306 307 310 312 312 312 312 311 311 310 310 310 310 309 307 303
243 243 243 244 245 246 246 247 248 249 250 251 252 253 253 254 256 257 259 261 262 263 264 265 266 267 268 269 270 271 272 273 275 276 277 278 279 280 281 282 283 284 285 286 286 287 287 288 288 289 289 290 292 293 294 295 296 297 298 299 299 301 302 304 305 305 305 305 305 305 306 309 311 312 312 311 311 310 310 310 309 309 308 307 303
244 245 245 245 246 247 248 249 250 250 251 252 253 253 254 256 257 258 260 262 264 265 266 267 268 269 270 270 272 273 274 275 276 277 278 279 280 281 282 282 283 284 284 285 285 286 286 287 287 288 289 290 292 293 294 295 297 298 299 299 300 301 303 304 305 305 305 305 305 305 306 308 310 311 310 310 309 309 308 308 308 307 306 305 302
246 247 248 248 248 248 249 250 251 251 252 253 254 255 256 258 259 261 262 264 265 266 267 268 269 270 271 272 273 274 275 276 277 278 279 280 280 281 281 282 283 283 283 284 284 285 286 286 287 288 290 291 292 292 293 295 297 298 299 299 300 301 302 304 305 306 306 306 306 306 306 307 308 308 308 307 307 306 306 305 305 305 304 302 299
Height
10964 10967 10969 10971 10973 10975 10976 10978 10980 10983 10985 10987 10989 10990 10992 10993 10994 10995 10997 10999 11000 11001 11002 11003 11003 11004 11004 11005 11005 11005 11005 11005 11004 11004 11003 11004 11003 11003 11002 11001 11000 10999 10998 10997 10996 10995 10994 10992 10991 10989 10987 10985 10983 10981 10978 10976 10974 10972 10970 10967 10965 10963 10960 10958 10955 10952 10950 10948 10945 10943 10941 10939 10937 10934 10932 10930 10928 10926 10924 10922 10920 10919 10918 10918 10919
10962 10966 10968 10970 10972 10974 10975 10977 10979 10981 10983 10985 10987 10988 10989 10991 10992 10993 10995 10997 10998 10999 11000 11001 11002 11002 11003 11003 11003 11003 11004 11004 11003 11003 11002 11002 11002 11001 11000 11000 10999 10998 10997 10996 10995 10993 10992 10991 10989 10988 10986 10984 10981 10979 10976 10974 10972 10969 10966 10963 10961 10959 10957 10955 10953 10951 10949 10946 10944 10941 10938 10936 10934 10931 10929 10927 10924 10922 10920 10918 10917 10915 10915 10914 10915
10961 10964 10966 10969 10971 10972 10974 10975 10977 10979 10981 10982 10984 10985 10987 10988 10989 10991 10992 10994 10995 10996 10998 10998 10999 11000 11001 11001 11001 11002 11002 11002 11002 11002 11001 11001 11000 10999 10999 10998 10997 10996 10995 10994 10993 10992 10991 10989 10988 10986 10984 10982 10979 10977 10974 10972 10969 10966 10964 10961 10958 10956 10954 10952 10950 10948 10946 10944 10942 10939 10936 10934 10931 10928 10926 10924 10921 10918 10916 10914 10913 10912 10911 10911 10911
10958 10961 10964 10966 10969 10970 10971 10973 10975 10977 10978 10979 10981 10982 10983 10985 10986 10988 10989 10991 10993 10994 10995 10996 10997 10998 10998 10999 10999 10999 11000 11000 11000 11000 11000 10999 10999 10998 10997 10996 10995 10994 10993 10992 10991 10990 10988 10987 10986 10984 10982 10980 10977 10975 10973 10970 10967 10964 10961 10959 10957 10954 10952 10950 10948 10945 10942 10940 10938 10936 10934 10931 10928 10925 10923 10921 10918 10915 10913 10911 10910 10909 10908 10908 10908
10955 10958 10961 10964 10966 10967 10968 10970 10972 10974 10976 10977 10978 10979 10980 10982 10984 10985 10987 10989 10990 10991 10993 10994 10995 10995 10996 10996 10997 10997 10998 10998 10998 10998 10998 10998 10997 10996 10996 10994 10993 10992 10990 10990 10989 10988 10986 10985 10984 10982 10980 10978 10975 10973 10971 10968 10965 10962 10959 10957 10955 10952 10950 10948 10946 10943 10940 10937 10934 10931 10929 10927 10925 10922 10919 10917 10915 10912 10910 10909 10908 10907 10906 10906 10906
10953 10955 10958 10961 10962 10964 10965 10967 10969 10972 10973 10974 10975 10976 10978 10980 10982 10983 10985 10987 10988 10989 10990 10991 10992 10993 10994 10994 10995 10995 10995 10995 10996 10996 10996 10996 10995 10995 10994 10993 10992 10990 10988 10987 10986 10985 10984 10983 10982 10980 10978 10976 10973 10970 10968 10965 10963 10961 10959 10956 10953 10951 10949 10946 10944 10942 10939 10936 10933 10930 10927 10925 10922 10920 10918 10914 10912 10910 10908 10907 10906 10906 10904 10904 10905
10950 10953 10955 10957 10959 10960 10962 10964 10967 10969 10970 10971 10972 10973 10975 10977 10979 10981 10983 10984 10985 10987 10988 10989 10990 10991 10992 10993 10993 10993 10993 10993 10993 10993 10993 10993 10993 10992 10991 10990 10989 10988 10987 10985 10984 10983 10982 10981 10979 10978 10976 10974 10971 10968 10965 10962 10960 10958 10956 10954 10952 10950 10948 10945 10943 10940 10938 10936 10933 10930 10927 10924 10921 10919 10917 10914 10911 10909 10907 10906 10905 10905 10903 10903 10903
10947 10950 10952 10954 10956 10957 10960 10962 10965 10966 10967 10968 10969 10970 10972 10974 10976 10978 10979 10981 10982 10984 10985 10986 10987 10989 10990 10991 10991 10991 10991 10991 10991 10990 10990 10990 10990 10990 10989 10987 10986 10985 10984 10983 10982 10981 10979 10978 10977 10975 10973 10971 10968 10965 10962 10960 10958 10956 10954 10952 10950 10949 10947 10944 10942 10939 10937 10935 10933 10930 10927 10925 10922 10919 10917 10914 10911 10909 10907 10905 10904 10904 10903 10902 10902
10944 10946 10948 10950 10953 10955 10958 10960 10962 10963 10964 10965 10965 10967 10969 10971 10973 10975 10976 10978 10980 10981 10982 10983 10985 10986 10987 10988 10989 10989 10989 10989 10988 10988 10987 10987 10986 10986 10985 10984 10983 10982 10981 10980 10979 10978 10977 10976 10974 10972 10970 10968 10965 10962 10960 10957 10955 10953 10951 10950 10948 10947 10945 10944 10942 10939 10936 10934 10932 10930 10927 10924 10922 10920 10918 10915 10912 10910 10908 10906 10904 10903 10903 10902 10902
10941 10943 10945 10947 10950 10952 10955 10957 10958 10960 10961 10961 10963 10965 10967 10969 10970 10972 10974 10975 10977 10978 10979 10981 10982 10983 10984 10984 10985 10986 10986 10986 10985 10985 10985 10984 10983 10983 10982 10981 10980 10979 10978 10977 10976 10975 10974 10973 10971 10969 10967 10965 10962 10960 10957 10955 10953 10951 10949 10948 10946 10945 10944 10942 10940 10938 10935 10933 10931 10929 10926 10924 10921 10919 10918 10916 10913 10911 10909 10907 10905 10904 10903 10902 10901
10937 10939 10942 10945 10947 10949 10951 10953 10954 10956 10957 10959 10961 10963 10964 10966 10967 10969 10971 10972 10974 10975 10977 10978 10979 10980 10981 10981 10982 10982 10982 10982 10982 10982 10982 10981 10980 10979 10978 10978 10977 10976 10975 10974 10973 10972 10970 10969 10968 10966 10964 10962 10960 10957 10955 10953 10951 10949 10948 10946 10945 10943 10942 10940 10938 10936 10933 10931 10930 10928 10926 10923 10920 10918 10916 10915 10912 10911 10909 10908 10906 10904 10904 10903 10901
10934 10937 10939 10941 10944 10945 10947 10948 10950 10952 10954 10956 10958 10960 10961 10963 10964 10966 10968 10970 10971 10972 10973 10975 10976 10977 10978 10978 10979 10979 10979 10979 10979 10979 10979 10978 10977 10976 10975 10974 10974 10973 10972 10971 10970 10969 10967 10966 10964 10962 10960 10959 10957 10955 10953 10951 10950 10948 10946 10944 10943 10942 10940 10938 10936 10933 10931 10928 10927 10925 10924 10922 10918 10915 10914 10913 10911 10910 10909 10908 10906 10905 10904 10903 10901
10931 10934 10936 10937 10939 10941 10943 10945 10946 10948 10950 10952 10955 10957 10957 10958 10960 10962 10965 10967 10968 10969 10970 10972 10973 10974 10975 10975 10975 10976 10976 10976 10976 10976 10976 10975 10974 10972 10972 10971 10970 10969 10968 10967 10966 10965 10964 10962 10960 10959 10957 10955 10954 10952 10950 10949 10947 10946 10944 10942 10940 10939 10938 10936 10934 10931 10928 10926 10924 10921 10919 10919 10917 10913 10912 10911 10909 10908 10907 10906 10905 10904 10903 10902 10900
10929 10931 10932 10933 10935 10938 10939 10941 10943 10945 10947 10950 10952 10952 10953 10954 10957 10959 10962 10963 10964 10966 10968 10969 10970 10970 10971 10971 10972 10972 10973 10973 10973 10972 10972 10971 10970 10969 10968 10967 10966 10965 10964 10964 10962 10961 10960 10958 10956 10955 10953 10952 10950 10949 10948 10946 10944 10943 10941 10939 10937 10937 10936 10934 10931 10929 10926 10924 10922 10918 10915 10915 10914 10912 10910 10909 10907 10905 10905 10904 10902 10901 10902 10901 10898
10925 10927 10928 10930 10932 10934 10936 10937 10940 10942 10944 10946 10947 10948 10950 10952 10954 10957 10958 10960 10961 10963 10964 10965 10966 10967 10968 10968 10968 10968 10969 10970 10969 10968 10968 10967 10966 10965 10964 10964 10963 10962 10961 10960 10958 10957 10956 10954 10953 10951 10950 10949 10947 10946 10945 10943 10941 10940 10938 10935 10933 10933 10932 10930 10928 10925 10922 10920 10918 10915 10912 10910 10910 10908 10905 10904 10903 10901 10901 10901 10898 10898 10899 10898 10896
10922 10923 10925 10926 10928 10929 10932 10934 10936 10939 10940 10942 10943 10944 10946 10949 10951 10953 10955 10956 10958 10959 10960 10961 10963 10964 10964 10964 10964 10965 10966 10966 10965 10964 10963 10962 10962 10961 10960 10960 10959 10958 10957 10956 10954 10953 10952 10950 10948 10947 10947 10946 10945 10944 10942 10940 10938 10936 10934 10932 10929 10928 10927 10926 10923 10919 10917 10914 10911 10909 10907 10905 10904 10903 10900 10898 10898 10897 10897 10897 10893 10893 10897 10896 10894
10918 10920 10921 10923 10924 10926 10928 10930 10932 10934 10936 10938 10939 10941 10943 10945 10948 10949 10951 10952 10953 10954 10956 10958 10959 10960 10960 10960 10961 10962 10962 10962 10961 10960 10959 10958 10957 10957 10956 10956 10956 10955 10953 10951 10950 10949 10948 10946 10945 10943 10943 10943 10942 10941 10939 10937 10935 10934 10932 10929 10926 10924 10923 10921 10918 10914 10911 10908 10905 10903 10902 10899 10897 10896 10893 10891 10891 10892 10893 10893 10888 10887 10892 10893 10890
10914 10916 10918 10920 10922 10923 10925 10926 10928 10930 10932 10933 10935 10937 10939 10941 10944 10945 10946 10948 10949 10950 10951 10953 10954 10955 10956 10957 10958 10959 10958 10958 10957 10956 10955 10954 10953 10953 10952 10952 10952 10951 10949 10947 10946 10946 10944 10943 10941 10940 10939 10939 10938 10938 10937 10935 10933 10931 10930 10927 10923 10921 10920 10918 10915 10911 10907 10903 10899 10896 10895 10893 10891 10891 10888 10886 10885 10885 10886 10887 10883 10881 10884 10884 10882
10909 10911 10914 10916 10918 10920 10921 10923 10924 10926 10927 10929 10930 10933 10935 10937 10939 10940 10941 10943 10944 10946 10947 10948 10949 10951 10952 10953 10954 10954 10954 10953 10953 10952 10950 10949 10949 10949 10948 10948 10948 10946 10944 10943 10942 10942 10940 10939 10938 10936 10935 10935 10934 10934 10933 10932 10930 10928 10927 10925 10922 10919 10917 10915 10913 10909 10904 10898 10893 10890 10888 10886 10885 10884 10883 10881 10880 10879 10879 10879 10877 10874 10874 10873 10870
10905 10908 10910 10913 10914 10916 10917 10919 10920 10922 10923 10924 10926 10928 10930 10932 10934 10935 10936 10938 10940 10942 10943 10943 10945 10946 10948 10949 10950 10950 10950 10949 10948 10947 10946 10945 10945 10945 10944 10944 10943 10941 10939 10939 10938 10937 10936 10934 10933 10932 10931 10930 10930 10929 10928 10927 10926 10924 10924 10923 10921 10917 10914 10912 10910 10908 10904 10897 10889 10886 10885 10882 10879 10877 10875 10874 10872 10870 10869 10868 10867 10866 10865 10864 10861
10901 10904 10907 10909 10910 10912 10913 10914 10916 10917 10918 10920 10922 10923 10925 10927 10929 10930 10932 10934 10936 10938 10938 10939 10940 10942 10943 10944 10945 10945 10945 10944 10943 10943 10942 10941 10941 10940 10940 10939 10938 10936 10935 10934 10933 10932 10931 10930 10929 10928 10928 10927 10926 10925 10925 10924 10923 10922 10920 10919 10918 10915 10912 10909 10907 10908 10907 10900 10892 10887 10884 10880 10877 10874 10871 10869 10866 10863 10860 10858 10856 10855 10854 10854 10853
10897 10900 10901 10903 10905 10906 10908 10909 10911 10913 10914 10916 10917 10919 10921 10922 10924 10925 10927 10929 10931 10933 10934 10935 10936 10937 10939 10939 10940 10940 10940 10939 10938 10938 10938 10938 10937 10936 10935 10934 10933 10931 10930 10929 10929 10928 10928 10927 10927 10926 10925 10924 10923 10922 10921 10920 10919 10918 10917 10915 10913 10911 10908 10906 10903 10903 10903 10900 10893 10887 10881 10877 10874 10871 10867 10866 10863 10859 10856 10854 10850 10847 10845 10843 10842
10891 10893 10895 10897 10898 10900 10902 10904 10906 10908 10910 10911 10913 10915 10916 10918 10919 10921 10922 10924 10926 10928 10929 10930 10932 10933 10934 10935 10935 10935 10935 10934 10933 10933 10934 10934 10933 10932 10931 10930 10929 10927 10926 10926 10926 10925 10925 10924 10924 10923 10922 10920 10919 10917 10917 10916 10915 10913 10912 10910 10908 10906 10903 10901 10898 10896 10896 10894 10891 10886 10879 10873 10870 10867 10862 10859 10856 10852 10850 10848 10846 10843 10840 10837 10833
10885 10887 10889 10891 10893 10895 10897 10899 10901 10903 10905 10907 10909 10910 10912 10914 10916 10917 10918 10920 10921 10923 10925 10926 10927 10928 10929 10930 10930 10929 10929 10929 10929 10929 10929 10929 10928 10928 10927 10926 10925 10924 10923 10923 10922 10922 10921 10921 10920 10918 10917 10916 10914 10913 10912 10911 10910 10908 10907 10905 10903 10901 10898 10896 10894 10891 10889 10887 10886 10883 10878 10872 10867 10863 10858 10853 10848 10844 10841 10839 10838 10836 10833 10831 10828
10879 10880 10883 10885 10888 10890 10893 10895 10897 10899 10901 10903 10904 10906 10908 10910 10911 10912 10914 10915 10916 10918 10920 10921 10923 10924 10924 10925 10924 10924 10924 10924 10924 10924 10924 10924 10924 10923 10922 10921 10921 10920 10919 10919 10918 10917 10917 10916 10915 10914 10912 10911 10910 10909 10908 10907 10905 10904 10902 10900 10898 10896 10893 10891 10889 10886 10884 10881 10879 10877 10874 10869 10864 10859 10853 10848 10843 10838 10834 10832 10830 10826 10822 10820 10820
10873 10875 10878 10881 10884 10887 10889 10891 10893 10895 10897 10898 10899 10901 10903 10905 10906 10907 10908 10910 10911 10913 10915 10917 10918 10918 10919 10919 10919 10919 10919 10919 10919 10919 10919 10919 10918 10918 10917 10917 10916 10915 10915 10914 10914 10913 10912 10911 10910 10909 10908 10907 10906 10905 10903 10902 10900 10899 10897 10895 10893 10890 10888 10886 10884 10881 10878 10876 10873 10870 10867 10863 10859 10854 10847 10842 10837 10832 10828 10826 10823 10818 10812 10810 10811
10868 10870 10873 10876 10879 10882 10884 10886 10889 10891 10892 10894 10895 10896 10897 10899 10900 10902 10903 10905 10907 10908 10910 10911 10912 10913 10914 10914 10914 10914 10913 10913 10913 10913 10913 10913 10913 10912 10912 10912 10912 10911 10910 10910 10910 10909 10908 10906 10905 10904 10903 10902 10901 10900 10899 10897 10895 10893 10891 10889 10887 10885 10883 10881 10878 10876 10873 10870 10867 10864 10860 10857 10852 10847 10841 10835 10830 10825 10821 10818 10815 10811 10804 10801 10801
10862 10864 10867 10871 10874 10876 10879 10881 10884 10886 10887 10889 10890 10890 10892 10893 10895 10896 10898 10900 10902 10903 10905 10906 10907 10908 10908 10908 10908 10908 10908 10908 10908 10907 10907 10908 10907 10907 10907 10907 10907 10906 10906 10905 10905 10904 10902 10901 10900 10899 10898 10897 10896 10895 10893 10892 10889 10887 10885 10883 10881 10879 10877 10875 10872 10869 10867 10865 10862 10858 10855 10851 10846 10841 10835 10829 10823 10818 10814 10810 10806 10802 10797 10793 10792
10856 10859 10862 10865 10868 10870 10873 10876 10878 10880 10881 10883 10884 10885 10887 10889 10890 10891 10893 10895 10896 10898 10899 10900 10901 10902 10903 10903 10903 10903 10903 10902 10902 10902 10902 10902 10903 10903 10902 10902 10902 10901 10901 10901 10900 10898 10897 10896 10895 10894 10893 10892 10891 10890 10888 10886 10884 10882 10880 10878 10876 10874 10871 10868 10865 10862 10859 10857 10854 10851 10849 10845 10841 10835 10829 10823 10817 10812 10808 10803 10799 10795 10790 10787 10785
10851 10854 10857 10860 10862 10865 10867 10870 10872 10873 10875 10877 10879 10881 10882 10884 10885 10887 10888 10890 10891 10892 10893 10895 10896 10897 10897 10897 10897 10897 10897 10896 10896 10897 10897 10897 10897 10897 10897 10897 10896 10896 10896 10895 10894 10893 10892 10891 10890 10889 10888 10887 10886 10884 10882 10880 10878 10876 10874 10872 10870 10868 10865 10862 10859 10856 10853 10850 10847 10844 10841 10839 10835 10830 10824 10818 10813 10808 10803 10797 10792 10788 10784 10781 10779
10846 10848 10851 10854 10856 10859 10861 10863 10865 10867 10869 10871 10873 10875 10877 10878 10879 10881 10882 10884 10885 10886 10887 10889 10890 10891 10891 10891 10891 10891 10891 10891 10891 10891 10891 10891 10891 10891 10891 10891 10891 10890 10890 10889 10888 10888 10887 10886 10885 10884 10883 10881 10880 10879 10877 10875 10872 10870 10867 10865 10864 10862 10858 10855 10852 10849 10846 10843 10840 10836 10834 10832 10829 10824 10818 10812 10808 10805 10799 10793 10788 10783 10779 10776 10774
10841 10843 10845 10848 10850 10852 10854 10857 10859 10861 10863 10865 10867 10869 10870 10872 10873 10875 10876 10877 10879 10880 10881 10883 10884 10885 10885 10885 10885 10885 10885 10885 10885 10886 10886 10885 10885 10885 10885 10885 10885 10885 10884 10883 10883 10882 10881 10880 10879 10878 10877 10876 10874 10873 10871 10869 10866 10864 10862 10860 10857 10855 10852 10848 10845 10842 10839 10837 10833 10829 10826 10824 10821 10818 10812 10807 10803 10800 10796 10790 10784 10779 10775 10772 10770
10836 10838 10840 10843 10845 10847 10849 10851 10853 10854 10856 10858 10860 10862 10863 10865 10866 10868 10869 10871 10872 10873 10875 10876 10877 10878 10879 10879 10879 10879 10879 10880 10880 10879 10879 10879 10879 10879 10880 10879 10879 10878 10878 10877 10877 10876 10875 10874 10873 10872 10871 10869 10868 10867 10865 10863 10860 10857 10856 10855 10852 10849 10846 10842 10839 10836 10833 10830 10827 10823 10820 10817 10815 10812 10807 10801 10796 10794 10790 10785 10780 10774 10770 10768 10765
10832 10834 10836 10838 10840 10842 10843 10845 10847 10849 10850 10852 10854 10855 10857 10859 10860 10862 10863 10865 10866 10867 10868 10870 10870 10872 10872 10872 10872 10873 10873 10874 10874 10874 10874 10874 10874 10874 10873 10873 10872 10872 10872 10871 10871 10870 10869 10868 10866 10865 10864 10862 10861 10860 10858 10856 10853 10851 10849 10848 10846 10843 10840 10836 10833 10830 10826 10823 10820 10816 10813 10810 10808 10806 10802 10796 10791 10787 10784 10781 10776 10771 10767 10764 10762
10827 10829 10831 10833 10835 10837 10838 10840 10842 10843 10845 10846 10848 10850 10852 10854 10855 10856 10858 10859 10860 10861 10863 10863 10864 10865 10866 10866 10866 10866 10867 10867 10868 10868 10868 10868 10868 10867 10867 10866 10866 10866 10865 10864 10864 10863 10862 10861 10859 10858 10857 10855 10854 10852 10850 10848 10846 10844 10842 10841 10839 10836 10833 10830 10826 10823 10820 10816 10813 10809 10806 10803 10801 10799 10796 10792 10786 10782 10778 10775 10771 10767 10763 10760 10758
10821 10824 10826 10828 10830 10832 10834 10835 10837 10838 10840 10841 10843 10845 10847 10848 10849 10851 10852 10853 10854 10855 10856 10857 10858 10858 10858 10858 10859 10859 10860 10861 10861 10862 10862 10862 10861 10861 10861 10860 10860 10859 10858 10857 10857 10856 10855 10854 10852 10851 10850 10848 10846 10845 10843 10840 10838 10836 10834 10833 10831 10829 10826 10823 10819 10816 10812 10809 10806 10803 10800 10796 10793 10790 10788 10786 10781 10776 10772 10769 10766 10762 10758 10756 10754
10816 10819 10821 10823 10825 10827 10828 10830 10831 10833 10834 10836 10838 10839 10841 10842 10844 10845 10846 10847 10848 10849 10850 10851 10851 10851 10850 10851 10851 10852 10853 10854 10855 10855 10855 10855 10855 10855 10854 10853 10852 10852 10851 10850 10849 10848 10847 10846 10845 10843 10842 10841 10839 10837 10835 10832 10830 10828 10827 10825 10823 10821 10818 10815 10813 10809 10806 10802 10799 10797 10794 10790 10787 10784 10782 10780 10776 10771 10767 10764 10761 10757 10753 10750 10749
10811 10813 10815 10817 10819 10821 10822 10824 10825 10827 10828 10830 10831 10832 10834 10836 10838 10838 10839 10840 10841 10842 10843 10843 10843 10842 10842 10843 10844 10846 10846 10846 10848 10849 10849 10850 10849 10848 10846 10845 10845 10844 10844 10843 10842 10841 10839 10838 10837 10836 10834 10833 10831 10829 10826 10824 10822 10820 10819 10817 10815 10813 10810 10808 10805 10802 10798 10795 10792 10790 10787 10784 10781 10778 10776 10774 10772 10769 10764 10760 10757 10754 10750 10747 10744
10805 10807 10809 10811 10813 10815 10816 10818 10819 10820 10822 10824 10825 10826 10828 10829 10830 10831 10833 10835 10834 10833 10834 10835 10834 10834 10835 10837 10839 10840 10840 10840 10841 10842 10842 10842 10841 10839 10838 10838 10837 10837 10836 10835 10833 10832 10831 10830 10829 10828 10826 10825 10823 10820 10818 10815 10814 10812 10811 10809 10806 10804 10801 10799 10797 10793 10790 10787 10785 10782 10779 10776 10773 10770 10767 10765 10764 10763 10760 10755 10751 10748 10747 10744 10741
10797 10800 10802 10804 10806 10808 10810 10811 10812 10814 10816 10817 10818 10819 10820 10822 10824 10825 10827 10826 10825 10824 10825 10827 10828 10829 10830 10832 10834 10835 10835 10834 10833 10833 10832 10832 10831 10830 10830 10830 10829 10829 10827 10826 10824 10823 10822 10821 10820 10819 10818 10817 10814 10812 10809 10807 10805 10804 10802 10800 10797 10795 10792 10790 10788 10785 10781 10778 10776 10774 10771 10768 10766 10763 10760 10756 10753 10752 10751 10748 10744 10741 10739 10738 10736
10789 10791 10793 10796 10799 10801 10803 10803 10804 10806 10809 10810 10811 10812 10814 10815 10817 10818 10819 10818 10817 10817 10819 10821 10823 10824 10825 10825 10826 10826 10826 10825 10824 10823 10823 10823 10823 10822 10822 10821 10820 10819 10818 10816 10815 10814 10813 10813 10812 10811 10809 10808 10805 10803 10800 10799 10797 10795 10793 10791 10788 10785 10783 10781 10779 10776 10773 10769 10767 10765 10763 10760 10757 10755 10752 10749 10745 10742 10741 10740 10736 10733 10730 10728 10727
10781 10783 10785 10788 10790 10793 10794 10796 10797 10799 10801 10803 10804 10805 10807 10808 10809 10810 10811 10811 10811 10812 10814 10815 10817 10818 10818 10817 10816 10815 10815 10815 10815 10815 10815 10815 10815 10814 10813 10812 10811 10809 10808 10807 10806 10805 10805 10804 10803 10802 10801 10799 10796 10793 10791 10789 10788 10786 10784 10781 10779 10776 10774 10772 10769 10767 10764 10761 10758 10756 10754 10751 10748 10745 10743 10741 10737 10734 10732 10731 10730 10727 10723 10719 10717
10775 10776 10778 10780 10782 10785 10787 10788 10790 10791 10794 10795 10797 10798 10799 10800 10801 10802 10803 10804 10805 10807 10808 10808 10809 10809 10809 10808 10807 10806 10806 10806 10807 10807 10807 10806 10806 10805 10804 10803 10801 10800 10799 10798 10797 10796 10795 10794 10794 10793 10791 10789 10786 10784 10782 10780 10778 10776 10774 10772 10770 10768 10765 10763 10760 10757 10754 10752 10749 10746 10744 10742 10739 10736 10734 10731 10728 10725 10722 10720 10720 10719 10717 10713 10710
10769 10770 10772 10773 10775 10777 10779 10780 10782 10784 10786 10787 10789 10790 10792 10793 10793 10794 10795 10797 10798 10799 10800 10800 10801 10800 10800 10799 10798 10798 10798 10798 10798 10798 10798 10797 10796 10795 10794 10793 10792 10790 10789 10788 10787 10786 10786 10785 10784 10782 10780 10778 10775 10773 10771 10769 10768 10766 10765 10762 10760 10758 10756 10753 10751 10748 10745 10742 10740 10737 10734 10732 10729 10727 10724 10721 10719 10716 10713 10711 10709 10708 10707 10705 10703
10761 10763 10765 10766 10768 10770 10771 10772 10774 10776 10778 10780 10781 10782 10784 10785 10786 10787 10788 10789 10790 10791 10792 10792 10791 10791 10790 10790 10790 10789 10789 10789 10789 10789 10788 10788 10787 10786 10785 10784 10782 10780 10779 10778 10777 10776 10775 10774 10773 10771 10769 10767 10765 10763 10761 10759 10757 10756 10755 10753 10751 10749 10746 10744 10741 10739 10736 10733 10730 10728 10725 10722 10719 10716 10713 10711 10708 10706 10704 10702 10699 10697 10696 10696 10695
10753 10755 10757 10759 10760 10762 10763 10765 10766 10768 10770 10772 10774 10775 10777 10779 10780 10780 10781 10781 10782 10783 10783 10783 10782 10782 10782 10781 10780 10780 10779 10779 10779 10779 10778 10778 10777 10776 10775 10773 10772 10770 10768 10767 10766 10765 10764 10763 10762 10760 10758 10756 10754 10752 10751 10749 10747 10745 10744 10742 10740 10738 10736 10734 10731 10729 10726 10723 10720 10717 10714 10712 10709 10705 10703 10700 10698 10695 10693 10691 10690 10688 10686 10685 10684
10744 10746 10748 10750 10752 10753 10755 10757 10758 10760 10762 10764 10766 10767 10769 10771 10772 10772 10771 10772 10773 10773 10774 10774 10774 10773 10773 10772 10771 10770 10770 10770 10769 10769 10768 10767 10767 10766 10764 10762 10761 10759 10757 10756 10754 10753 10752 10751 10750 10749 10747 10745 10743 10742 10740 10738 10736 10735 10733 10732 10730 10728 10726 10723 10720 10718 10715 10712 10709 10706 10703 10700 10697 10694 10692 10689 10687 10685 10682 10680 10679 10677 10675 10674 10672
10734 10736 10738 10740 10742 10744 10746 10748 10750 10751 10753 10755 10756 10758 10759 10761 10762 10762 10761 10762 10763 10764 10764 10765 10765 10764 10764 10763 10762 10761 10761 10760 10759 10758 10757 10756 10756 10755 10754 10752 10750 10748 10747 10745 10743 10741 10740 10739 10739 10737 10736 10734 10732 10731 10729 10727 10725 10724 10722 10720 10718 10716 10714 10712 10709 10706 10703 10701 10698 10695 10691 10688 10685 10682 10680 10677 10675 10674 10672 10670 10668 10666 10665 10663 10662
10723 10726 10728 10730 10732 10734 10736 10739 10741 10742 10744 10746 10747 10749 10750 10751 10751 10752 10752 10752 10753 10753 10754 10754 10754 10754 10753 10753 10752 10751 10751 10750 10749 10748 10746 10745 10745 10744 10743 10741 10739 10737 10735 10734 10732 10730 10729 10728 10727 10726 10724 10722 10721 10719 10718 10716 10714 10712 10710 10708 10706 10704 10702 10700 10697 10695 10692 10689 10686 10683 10680 10677 10673 10670 10667 10665 10663 10661 10659 10658 10656 10655 10654 10652 10651
10713 10715 10718 10720 10722 10724 10727 10729 10731 10733 10734 10736 10737 10738 10740 10741 10742 10742 10743 10743 10743 10743 10743 10743 10743 10743 10742 10742 10741 10740 10740 10739 10738 10736 10735 10734 10733 10732 10731 10729 10728 10726 10724 10722 10720 10718 10717 10716 10715 10714 10712 10710 10708 10707 10705 10704 10702 10700 10698 10696 10694 10691 10689 10686 10684 10682 10680 10677 10674 10671 10668 10664 10662 10659 10656 10654 10651 10649 10647 10645 10644 10642 10641 10640 10639
10703 10705 10707 10709 10711 10714 10717 10719 10720 10722 10723 10725 10726 10728 10730 10731 10732 10733 10733 10733 10733 10732 10732 10732 10731 10731 10731 10731 10730 10729 10728 10728 10726 10725 10723 10722 10720 10719 10718 10716 10715 10713 10711 10709 10708 10706 10704 10703 10702 10700 10699 10697 10696 10694 10693 10691 10690 10688 10686 10684 10681 10678 10675 10672 10669 10667 10665 10663 10661 10658 10655 10653 10650 10648 10646 10643 10640 10638 10635 10633 10631 10629 10628 10626 10625